Location: Unspecified
(0.0000°N, 0.0000°E)
Time: 08:21:56
(UTC+00:00)

Hubble Space Telescope - Pass Details

Date: 22 November 2023
Orbit: 518 x 522 km, 28.5° (Epoch: 08 December)

Event Time Altitude Azimuth Distance (km) Brightness Sun altitude
Exits shadow 03:51:28 41° 136° (SE) 757 1.8 -26.7°
Drops below altitude 10° 03:54:12 10° 125° (SE) 1,740 4.3 -26.1°
Sets 03:56:26 0° 123° (ESE) 2,628 5.6 -25.6°
